Regional Weather Roundup
Issued by NWS Newport/Morehead, NC

Current Version | Previous Version | Graphics & Text | Print | Product List | Glossary On
Versions: 1 2 3 4 5 6 7 8 9 10 11 12 13 14 15 16 17 18 19 20 21 22 23 24 25 26 27 28 29 30 31 32 33 34 35 36 37 38 39 40 41 42 43 44 45 46 47 48 49 50
000 ASUS42 KMHX 021324 RWRMHX WEATHER ROUNDUP FOR EASTERN NORTH CAROLINA NATIONAL WEATHER SERVICE NEWPORT/MOREHEAD CITY NC 800 AM EST MON MAR 02 2015 NOTE: "FAIR" INDICATES FEW OR NO CLOUDS BELOW 12,000 FEET WITH NO SIGNIFICANT WEATHER AND/OR OBSTRUCTIONS TO VISIBILITY NCZ015>017-031-032-045>047-102-103-021400- NORTH COAST CITY SKY/WX TMP DP RH WIND PRES REMARKS EDENTON FOG 39 39 99 W8 30.18S VSB 1 ELIZABETH CITY CLOUDY 39 37 93 W9 30.17R FOG KITTY HAWK FOG 41 41 100 SW6 30.15S VSB 1/2 MANTEO CLOUDY 41 41 100 W7 30.17S FOG $$ NCZ045>047-081-094-103-104-021400- CENTRAL COAST CITY SKY/WX TMP DP RH WIND PRES REMARKS FRISCO FOG 43 43 100 W8 30.21R VSB 1/2 SWANQUARTER N/A 43 N/A N/A SW3G9 30.15S $$ NCZ095-097-098-100-101-021400- SOUTHERN COAST CITY SKY/WX TMP DP RH WIND PRES REMARKS BEAUFORT FOG 45 45 100 SW9 30.22R VSB 1/4 CEDAR ISLAND N/A 46 N/A N/A SW8 30.24R JACKSONVILLE CLOUDY 45 43 93 SW7 30.22R PINEY ISLAND N/A N/A N/A N/A MISG 30.19S WILMINGTON CLOUDY 46 45 96 SW9 30.24S FOG $$ NCZ011>013-027>030-043-044-078>080-089-090>093-098-021400- COASTAL PLAIN CITY SKY/WX TMP DP RH WIND PRES REMARKS AHOSKIE FOG 37 36 99 CALM 30.18S VSB 1/2 CLINTON CLOUDY 42 42 100 SW7 30.23F FOG ELIZABETHTOWN FOG 43 43 100 W6 30.24R VSB 1 GOLDSBORO CLOUDY 42 42 100 SW8 30.19S GREENVILLE CLOUDY 41 41 100 W7 30.21S FOG HAVELOCK FOG 47 45 93 SW9 30.22S VSB 1/2 KENANSVILLE CLOUDY 42 42 100 SW7 30.23S FOG KINSTON CLOUDY 43 43 100 SW7 30.22R FOG NEW BERN CLOUDY 45 43 93 W8 30.23R RICHLANDS CLOUDY 45 41 87 W6 30.24R ROCKY MOUNT CLOUDY 40 40 100 SW6 30.19S FOG WASHINGTON CLOUDY 41 41 98 W10 30.20S FOG WHITEVILLE FOG 44 44 97 W3 30.25R VSB 1 $$ AMZ130-135-150-152-154-156-158-170-250-252-270-ANZ085-086-088-633-658-670-021400- MARINE OBSERVATIONS STATION/POSITION TIME TEMP WIND PRES WAVE SWELL AIR SEA DIR/SP/G HT/PER HT/PER (UTC) (F) (DEG/KT/KT) (MB) (FT/S) (FT/S) CHESAPEAKE LIGHT 1300 35 230/ 14/ 15 1020.8 64 E VA BEACH 1250 43 51 250/ 17/ 19 1019.7 4/ 7 3/ 7 DUCK 1300 38 34 250/ 11/ 15 1020.1 2 E DUCK 1211 N/A 3/ 6 10 NE DUCK 1222 37 N/A 3/ 6 OREGON INLET 1300 41 42 240/ 7/ 8 1021.7 HATTERAS CG 1300 43 42 270/ 8/ 11 1023.3 CAPE LOOKOUT 1300 46 260/ 9/ 11 1023.4 BEAUFORT LAB 1300 44 43 240/ 7/ 11 1022.4 27 SE WRIGHTSVLE NOT AVBL 5 SE WRIGHTSVLE NOT AVBL 225 S CAPE HAT 1250 71 72 220/ 16/ 17 1025.0 6/ 9 3/ 9 41 SE CHARLESTON 1250 60 68 270/ 16/ 17 1025.1 4/ 8 3/ 8 $$

USA.gov is the U.S. government's official web portal to all federal, state and local government web resources and services.